Lid_Strength_Index
11 11 12 12 11 12 12 12 12 14 14 13 14 13 13 13 12 12 12 10 10 9 9 8 8 8 7 7 7 6 6 6 6 4 3 3 1 1
11 12 12 12 12 12 12 12 12 13 14 13 14 14 13 12 12 12 12 10 10 10 9 8 8 8 8 8 7 7 7 6 5 4 4 3 2 1
12 12 12 12 12 12 12 12 12 12 13 14 14 13 14 14 13 12 12 13 13 10 9 9 9 8 8 8 8 7 7 7 6 5 4 3 3 1
12 12 13 12 12 12 12 12 12 12 13 15 15 15 14 14 13 14 12 11 12 10 9 9 9 8 8 8 8 8 8 7 6 6 5 4 3 2
12 13 13 13 13 13 12 12 12 13 14 15 16 14 14 15 15 14 14 14 12 10 9 10 9 9 8 8 9 8 8 8 7 6 6 5 4 3
12 12 13 14 14 13 13 13 13 14 15 15 16 16 16 15 15 16 16 16 15 12 11 11 10 9 9 8 9 9 8 7 7 7 7 6 5 4
13 13 13 13 11 12 12 13 14 15 15 15 15 16 16 15 15 15 16 16 16 16 15 15 14 13 12 11 10 9 8 7 7 7 7 6 5 5
16 15 13 14 12 11 11 11 12 14 14 15 15 15 14 15 15 16 15 16 19 16 16 15 15 15 14 13 9 8 8 8 7 7 7 6 6 5
15 13 14 14 13 14 12 12 12 11 11 13 15 14 14 14 15 16 15 15 15 15 16 20 16 15 14 12 8 8 8 8 8 8 7 7 6 6
14 13 14 14 14 14 14 14 14 13 13 12 13 13 13 13 14 14 14 15 16 16 17 22 17 17 14 13 9 8 8 8 8 8 7 7 6 7
14 14 14 15 14 13 14 15 14 13 11 11 11 11 11 11 12 14 19 21 23 19 17 19 18 18 16 16 12 9 9 8 8 8 8 7 6 7
15 14 14 14 13 12 14 14 15 14 14 15 14 13 13 13 11 14 17 22 23 23 18 19 18 19 20 16 15 16 13 9 9 9 8 7 7 10
15 15 14 12 12 12 12 14 14 13 13 14 14 15 15 14 14 15 16 17 22 21 16 18 20 20 22 20 18 17 16 14 14 12 9 8 7 8
14 14 14 12 12 12 12 12 12 12 14 15 16 16 15 15 14 13 13 16 17 17 18 16 20 20 23 24 20 17 15 15 13 12 12 10 9 8
14 14 13 12 12 12 12 11 12 12 13 15 15 15 14 14 14 15 15 19 19 19 17 17 17 19 20 22 21 18 14 15 14 13 13 12 12 11
13 13 13 13 12 12 14 12 12 12 13 14 15 15 15 16 16 16 18 19 21 20 17 16 17 17 21 19 18 19 17 16 15 15 13 13 12 11
14 14 14 14 15 14 14 14 14 14 14 14 15 15 15 17 17 18 19 21 22 21 18 19 17 16 16 17 21 18 17 17 15 15 15 16 13 12
14 15 15 15 15 15 15 15 14 15 15 16 16 16 16 16 17 19 19 19 20 21 21 21 20 20 20 18 13 17 18 17 15 15 15 18 17 14
13 14 14 14 15 15 15 15 15 14 15 16 16 16 16 16 17 17 17 18 20 21 21 21 22 23 26 25 19 10 17 18 17 18 16 17 17 14
13 13 14 14 14 15 15 15 15 15 15 16 16 16 16 16 17 17 18 20 20 22 24 24 21 21 22 23 24 19 11 18 19 20 18 17 14 10
13 13 13 13 13 13 13 14 14 14 15 15 16 16 16 16 17 17 17 17 19 20 20 21 17 17 20 24 25 24 19 11 14 19 19 20 20 18
13 13 12 12 12 12 13 13 14 14 15 17 17 16 16 16 17 17 17 18 19 18 18 18 19 22 24 22 25 24 21 19 16 13 12 14 21 23
12 11 11 12 13 13 14 14 14 14 15 16 16 16 16 18 17 17 18 17 18 20 19 19 19 19 20 20 23 23 24 24 21 21 20 13 11 11